QPF
0.00 0.00 0.00 0.00 0.00 0.03 0.01 0.02 0.11 0.09 0.02 0.03 0.04 0.03 0.01 0.01 0.00 0.00 0.00 0.00 0.00 0.00 0.00 0.00 0.00 0.00 0.00 0.00 0.00 0.00 0.00 0.00 0.00 0.00 0.00 0.00 0.00 0.00 0.01 0.04 0.10 0.11 0.14 0.10
0.00 0.00 0.00 0.00 0.00 0.01 0.00 0.00 0.02 0.30 0.13 0.00 0.03 0.09 0.31 0.10 0.01 0.02 0.00 0.00 0.00 0.00 0.00 0.00 0.00 0.00 0.00 0.00 0.00 0.00 0.00 0.00 0.00 0.00 0.00 0.00 0.00 0.00 0.08 0.19 0.29 0.17 0.06 0.01
0.00 0.00 0.00 0.00 0.00 0.00 0.00 0.00 0.00 0.10 0.20 0.04 0.05 0.08 0.36 0.41 0.04 0.02 0.02 0.01 0.00 0.00 0.00 0.00 0.00 0.00 0.00 0.00 0.00 0.00 0.00 0.00 0.00 0.00 0.00 0.00 0.00 0.01 0.10 0.06 0.09 0.06 0.02 0.01
0.00 0.00 0.00 0.00 0.00 0.00 0.00 0.00 0.00 0.01 0.06 0.01 0.00 0.01 0.01 0.04 0.03 0.01 0.01 0.01 0.01 0.00 0.00 0.00 0.00 0.00 0.00 0.00 0.00 0.00 0.00 0.00 0.00 0.00 0.00 0.00 0.00 0.02 0.01 0.08 0.29 0.35 0.16 0.03
0.00 0.00 0.00 0.00 0.00 0.00 0.00 0.00 0.00 0.00 0.00 0.00 0.00 0.00 0.00 0.00 0.01 0.00 0.00 0.00 0.00 0.01 0.00 0.00 0.00 0.00 0.00 0.00 0.00 0.00 0.00 0.00 0.00 0.00 0.00 0.00 0.00 0.00 0.03 0.15 0.69 0.66 0.09 0.05
0.00 0.00 0.00 0.00 0.00 0.00 0.00 0.00 0.00 0.00 0.00 0.00 0.00 0.00 0.00 0.00 0.01 0.00 0.00 0.00 0.00 0.00 0.00 0.00 0.00 0.00 0.00 0.00 0.00 0.00 0.00 0.00 0.00 0.00 0.00 0.00 0.00 0.00 0.04 0.07 0.20 0.19 0.31 0.47
0.00 0.00 0.00 0.00 0.00 0.00 0.00 0.00 0.00 0.00 0.00 0.00 0.00 0.01 0.01 0.00 0.00 0.00 0.00 0.00 0.00 0.00 0.00 0.00 0.00 0.00 0.00 0.00 0.00 0.00 0.00 0.00 0.00 0.00 0.00 0.00 0.00 0.01 0.03 0.05 0.19 0.14 0.32 0.79
0.00 0.00 0.00 0.00 0.00 0.00 0.00 0.00 0.00 0.00 0.00 0.00 0.00 0.00 0.00 0.00 0.00 0.00 0.00 0.00 0.00 0.00 0.00 0.00 0.00 0.00 0.00 0.00 0.00 0.00 0.00 0.00 0.00 0.00 0.00 0.00 0.00 0.01 0.00 0.11 0.18 0.10 0.04 0.09
0.00 0.00 0.00 0.00 0.00 0.00 0.00 0.00 0.00 0.00 0.00 0.00 0.00 0.00 0.00 0.00 0.00 0.00 0.00 0.01 0.00 0.00 0.00 0.00 0.00 0.00 0.00 0.00 0.00 0.00 0.00 0.00 0.00 0.00 0.00 0.00 0.00 0.01 0.00 0.04 0.06 0.07 0.07 0.33
0.00 0.00 0.00 0.00 0.00 0.00 0.00 0.00 0.00 0.00 0.00 0.00 0.00 0.00 0.00 0.00 0.00 0.00 0.00 0.01 0.00 0.00 0.00 0.00 0.00 0.00 0.00 0.00 0.00 0.00 0.00 0.00 0.00 0.00 0.00 0.00 0.00 0.00 0.03 0.06 0.05 0.13 0.02 0.15
0.00 0.00 0.00 0.00 0.00 0.00 0.00 0.00 0.00 0.00 0.00 0.00 0.00 0.00 0.00 0.00 0.00 0.00 0.00 0.02 0.01 0.00 0.00 0.00 0.00 0.00 0.00 0.00 0.00 0.00 0.00 0.00 0.00 0.00 0.00 0.00 0.00 0.00 0.01 0.04 0.08 0.06 0.01 0.00
0.00 0.00 0.00 0.00 0.00 0.00 0.00 0.00 0.00 0.00 0.00 0.00 0.00 0.00 0.00 0.00 0.00 0.00 0.00 0.00 0.00 0.00 0.00 0.00 0.00 0.00 0.00 0.00 0.00 0.00 0.00 0.00 0.00 0.00 0.00 0.00 0.00 0.00 0.00 0.01 0.04 0.05 0.01 0.02
0.00 0.00 0.00 0.00 0.00 0.00 0.00 0.00 0.00 0.00 0.00 0.00 0.00 0.00 0.00 0.00 0.00 0.00 0.00 0.00 0.00 0.00 0.00 0.00 0.00 0.00 0.00 0.00 0.00 0.00 0.00 0.00 0.00 0.00 0.00 0.00 0.00 0.00 0.00 0.00 0.01 0.02 0.01 0.03
0.00 0.00 0.00 0.00 0.00 0.00 0.00 0.00 0.00 0.00 0.00 0.00 0.00 0.00 0.00 0.00 0.00 0.00 0.00 0.00 0.00 0.00 0.00 0.00 0.00 0.00 0.00 0.00 0.00 0.00 0.00 0.00 0.00 0.00 0.00 0.00 0.00 0.00 0.00 0.00 0.00 0.01 0.04 0.01
0.00 0.00 0.00 0.00 0.00 0.00 0.00 0.00 0.00 0.00 0.00 0.00 0.00 0.00 0.00 0.00 0.00 0.00 0.00 0.00 0.00 0.00 0.00 0.00 0.00 0.00 0.00 0.00 0.00 0.00 0.00 0.00 0.00 0.00 0.00 0.00 0.00 0.00 0.00 0.00 0.00 0.00 0.02 0.02
0.00 0.00 0.00 0.00 0.00 0.00 0.00 0.00 0.00 0.00 0.00 0.00 0.00 0.00 0.00 0.00 0.00 0.00 0.00 0.00 0.00 0.00 0.00 0.00 0.00 0.00 0.00 0.00 0.00 0.00 0.00 0.00 0.00 0.00 0.00 0.01 0.00 0.00 0.00 0.01 0.02 0.00 0.01 0.02
0.00 0.00 0.00 0.00 0.00 0.00 0.00 0.00 0.00 0.00 0.00 0.00 0.00 0.00 0.00 0.00 0.00 0.00 0.00 0.00 0.00 0.00 0.00 0.00 0.00 0.00 0.00 0.00 0.00 0.00 0.00 0.00 0.00 0.00 0.00 0.00 0.00 0.00 0.00 0.01 0.01 0.00 0.00 0.00
0.00 0.00 0.00 0.00 0.00 0.00 0.00 0.00 0.00 0.00 0.00 0.00 0.00 0.00 0.00 0.00 0.00 0.00 0.00 0.00 0.00 0.00 0.00 0.00 0.00 0.00 0.00 0.00 0.00 0.00 0.00 0.00 0.00 0.00 0.00 0.00 0.00 0.00 0.00 0.00 0.00 0.00 0.01 0.01
0.02 0.01 0.00 0.00 0.00 0.00 0.00 0.00 0.00 0.00 0.00 0.00 0.00 0.00 0.00 0.00 0.00 0.00 0.00 0.00 0.00 0.00 0.00 0.00 0.00 0.00 0.00 0.00 0.00 0.00 0.00 0.00 0.00 0.00 0.00 0.00 0.00 0.00 0.00 0.00 0.00 0.00 0.01 0.00
0.01 0.05 0.04 0.00 0.00 0.00 0.00 0.00 0.00 0.00 0.00 0.00 0.00 0.00 0.00 0.00 0.00 0.00 0.00 0.00 0.00 0.00 0.00 0.00 0.00 0.00 0.00 0.00 0.00 0.00 0.00 0.00 0.00 0.00 0.00 0.00 0.00 0.00 0.00 0.00 0.00 0.01 0.03 0.01
0.00 0.01 0.02 0.01 0.00 0.00 0.00 0.00 0.00 0.00 0.00 0.00 0.00 0.00 0.00 0.00 0.00 0.00 0.00 0.00 0.00 0.00 0.00 0.00 0.00 0.00 0.00 0.00 0.00 0.00 0.00 0.00 0.00 0.00 0.00 0.00 0.00 0.00 0.00 0.00 0.00 0.05 0.01 0.01
0.00 0.00 0.01 0.01 0.03 0.03 0.00 0.00 0.00 0.00 0.00 0.00 0.00 0.00 0.00 0.00 0.00 0.00 0.00 0.00 0.00 0.00 0.00 0.00 0.00 0.00 0.00 0.00 0.00 0.00 0.00 0.00 0.00 0.00 0.00 0.00 0.00 0.00 0.00 0.00 0.01 0.01 0.00 0.00
0.00 0.00 0.00 0.00 0.00 0.01 0.01 0.00 0.00 0.00 0.00 0.00 0.00 0.00 0.00 0.00 0.00 0.00 0.00 0.00 0.00 0.00 0.00 0.00 0.00 0.00 0.00 0.00 0.00 0.00 0.00 0.00 0.00 0.00 0.00 0.00 0.00 0.00 0.00 0.00 0.00 0.00 0.00 0.00
0.00 0.00 0.00 0.00 0.00 0.00 0.00 0.01 0.00 0.00 0.00 0.00 0.00 0.00 0.00 0.00 0.00 0.00 0.00 0.00 0.00 0.00 0.00 0.00 0.00 0.00 0.00 0.00 0.00 0.00 0.00 0.00 0.00 0.00 0.00 0.00 0.00 0.00 0.00 0.00 0.00 0.00 0.00 0.00
0.00 0.00 0.00 0.00 0.00 0.01 0.01 0.00 0.00 0.00 0.00 0.00 0.00 0.00 0.00 0.00 0.00 0.00 0.00 0.00 0.00 0.00 0.00 0.00 0.00 0.00 0.00 0.00 0.00 0.00 0.00 0.00 0.00 0.00 0.00 0.00 0.00 0.00 0.00 0.00 0.01 0.00 0.00 0.00
0.01 0.00 0.00 0.01 0.03 0.03 0.01 0.00 0.00 0.00 0.00 0.00 0.00 0.00 0.00 0.00 0.00 0.00 0.00 0.00 0.00 0.00 0.00 0.00 0.00 0.00 0.00 0.00 0.00 0.00 0.00 0.00 0.00 0.00 0.00 0.00 0.01 0.02 0.00 0.01 0.01 0.03 0.00 0.02
MSLP
1000.03 1000.55 1000.78 1001.13 1002.29 1003.13 1005.16 1006.26 1006.78 1006.53 1007.40 1008.83 1008.06 1007.28 1006.91 1006.45 1006.11 1006.35 1006.71 1007.02 1007.14 1007.37 1007.39 1007.85 1008.35 1009.37 1010.21 1010.92 1011.63 1012.26 1012.88 1013.43 1014.14 1014.68 1015.16 1015.43 1015.63 1015.28 1015.57 1015.79 1015.92 1016.41 1016.76 1017.04
1000.41 1000.20 999.76 1000.25 1001.18 1002.58 1004.22 1006.46 1007.69 1009.28 1008.06 1008.78 1008.48 1010.62 1008.51 1008.61 1008.21 1008.09 1006.24 1006.62 1006.68 1007.04 1007.21 1007.76 1008.24 1008.93 1009.93 1010.65 1011.25 1012.06 1012.55 1013.16 1013.76 1014.22 1014.58 1014.72 1015.03 1015.58 1016.23 1016.47 1016.59 1016.25 1016.39 1016.57
1000.08 999.50 998.95 999.94 1000.41 1001.38 1002.15 1004.34 1006.02 1007.38 1008.02 1007.82 1008.89 1012.39 1010.37 1009.13 1006.87 1007.16 1006.07 1005.62 1005.65 1005.96 1006.75 1007.47 1008.03 1008.64 1009.61 1010.41 1011.07 1011.76 1012.34 1012.74 1013.44 1013.91 1014.17 1014.55 1015.27 1015.90 1016.17 1016.22 1016.24 1016.21 1016.18 1016.27
999.48 998.77 998.47 998.92 999.38 999.35 999.84 1001.91 1003.70 1005.86 1007.18 1006.30 1006.15 1010.27 1010.59 1008.09 1007.47 1006.34 1004.87 1004.55 1004.71 1004.97 1005.55 1006.58 1007.42 1008.10 1009.09 1010.03 1010.70 1011.23 1011.84 1012.46 1013.07 1013.53 1013.94 1014.65 1015.16 1015.89 1015.77 1016.54 1017.06 1017.08 1016.26 1016.14
999.07 998.34 998.03 997.82 997.53 997.79 997.93 999.16 1000.82 1003.72 1003.52 1004.33 1004.71 1006.32 1008.01 1008.58 1007.14 1004.62 1003.62 1003.21 1003.24 1003.53 1004.34 1005.48 1006.27 1007.07 1008.11 1009.25 1010.07 1010.59 1011.26 1012.17 1012.80 1013.32 1013.73 1014.37 1014.90 1015.23 1015.90 1016.35 1016.72 1016.53 1016.66 1016.52
998.62 997.52 997.30 997.02 996.68 996.72 997.28 998.30 999.43 1000.35 1001.65 1003.08 1003.81 1005.37 1006.68 1005.86 1004.15 1002.75 1002.41 1002.23 1002.45 1002.67 1003.30 1004.24 1005.24 1006.07 1007.16 1008.40 1009.31 1010.11 1010.84 1011.65 1012.36 1013.01 1013.53 1013.99 1014.41 1015.06 1016.19 1016.71 1016.45 1017.08 1017.52 1017.72
998.74 997.85 996.85 996.71 996.85 996.69 997.24 998.67 999.98 1001.07 1001.97 1003.60 1003.13 1004.92 1005.89 1003.91 1001.95 1000.75 1000.82 1001.42 1001.34 1001.85 1002.47 1003.25 1004.31 1005.32 1006.33 1007.52 1008.58 1009.53 1010.31 1011.12 1011.72 1012.46 1013.13 1013.64 1014.25 1014.76 1015.47 1016.25 1016.82 1017.38 1017.86 1017.09
999.10 998.24 997.11 996.41 996.73 996.83 997.49 998.58 1000.02 1000.91 1001.90 1003.32 1003.46 1004.51 1003.06 1001.72 1000.52 1000.80 1000.81 1001.33 1001.40 1001.04 1001.54 1002.32 1003.17 1004.20 1005.35 1006.60 1007.66 1008.70 1009.74 1010.53 1011.25 1011.81 1012.64 1013.25 1013.90 1014.62 1014.96 1015.88 1016.52 1017.41 1017.15 1016.77
998.48 997.74 996.36 995.90 995.89 996.55 997.55 998.19 999.14 1000.15 1000.96 1002.37 1003.09 1003.00 1002.01 1000.84 1000.83 1000.52 1000.54 1001.24 1001.07 1000.36 1000.76 1001.43 1002.38 1003.30 1004.62 1005.80 1006.76 1007.79 1008.98 1010.01 1010.74 1011.34 1012.17 1012.93 1013.52 1014.23 1014.98 1015.76 1016.26 1016.36 1016.10 1016.24
997.24 997.61 996.27 995.58 995.41 996.18 996.96 998.01 999.19 999.99 1001.47 1002.33 1002.23 1001.39 1000.74 1000.90 1000.03 1000.35 1001.02 1001.22 1000.16 1000.05 1000.13 1000.97 1001.76 1002.57 1003.82 1004.97 1006.03 1007.21 1008.22 1009.13 1009.95 1010.93 1011.66 1012.47 1013.24 1013.88 1014.86 1015.48 1015.78 1015.75 1015.24 1015.72
996.37 997.01 996.15 995.55 995.41 996.13 997.04 997.86 998.87 1000.07 1001.07 1001.75 1001.59 1001.09 998.80 999.29 999.01 999.19 999.09 1001.06 998.84 998.54 999.25 1000.24 1001.18 1001.98 1003.13 1004.22 1005.63 1006.83 1007.95 1008.96 1009.84 1010.56 1011.34 1012.15 1013.06 1013.64 1014.57 1014.81 1015.07 1015.12 1015.33 1015.83
995.58 996.08 996.55 995.84 994.80 995.18 996.09 997.20 998.23 999.91 1000.83 1000.80 1000.48 1000.25 998.11 997.63 997.53 997.11 997.29 997.07 997.16 997.61 998.43 999.36 1000.62 1001.68 1002.81 1004.04 1005.45 1006.47 1007.48 1008.41 1009.09 1009.81 1010.78 1011.60 1012.47 1013.22 1013.96 1014.70 1014.82 1014.96 1015.68 1015.69
994.75 995.57 996.45 996.13 995.80 995.05 995.72 996.27 997.17 998.19 998.99 999.97 1000.10 998.85 997.37 997.45 996.83 996.70 996.17 995.95 996.51 997.40 998.32 998.95 1000.06 1001.28 1002.46 1003.76 1005.12 1006.19 1006.93 1007.83 1008.72 1009.51 1010.32 1011.03 1011.76 1012.54 1013.06 1014.03 1014.70 1014.68 1014.96 1015.24
994.10 995.33 996.38 996.41 995.68 995.11 995.28 995.62 996.27 997.20 998.54 998.80 998.38 997.52 997.37 996.97 996.49 995.27 995.58 996.04 996.21 997.12 998.00 998.67 999.75 1000.96 1002.08 1003.32 1004.53 1005.68 1006.52 1007.36 1008.07 1009.04 1010.04 1010.73 1011.22 1011.79 1012.30 1012.60 1013.35 1013.88 1014.19 1014.51
994.42 995.44 995.92 995.87 995.43 994.94 994.86 994.80 995.28 996.25 996.68 997.70 997.18 996.61 996.12 996.07 995.60 995.57 995.62 996.17 996.80 997.45 998.20 998.86 999.71 1000.95 1002.03 1003.17 1004.19 1005.09 1005.86 1006.70 1007.55 1008.62 1009.29 1009.94 1010.49 1011.00 1011.59 1012.18 1012.53 1012.94 1013.60 1013.88
995.28 995.92 996.17 996.18 995.65 995.03 994.21 993.64 994.12 994.68 995.28 995.68 995.77 995.70 995.08 995.09 995.41 995.40 995.77 996.36 997.04 997.59 997.93 998.48 999.17 1000.34 1001.49 1002.66 1003.59 1004.54 1005.31 1006.17 1007.08 1007.92 1008.79 1009.16 1009.93 1010.68 1011.11 1011.70 1012.24 1012.66 1013.03 1013.22
997.15 996.87 997.08 997.05 996.28 995.35 994.54 993.22 993.28 993.69 993.98 994.37 994.87 994.89 994.63 995.00 995.18 995.50 995.77 996.16 996.36 996.89 997.51 998.09 998.57 999.62 1000.48 1001.74 1002.83 1003.88 1004.65 1005.64 1006.43 1007.13 1007.92 1008.38 1009.25 1010.12 1010.56 1011.18 1011.76 1012.20 1012.57 1012.96
997.97 998.37 997.77 998.03 997.25 996.08 994.30 992.87 992.55 992.88 993.12 993.36 993.79 994.08 994.22 994.82 995.59 995.89 996.01 996.53 996.84 996.80 997.17 997.74 998.28 998.98 1000.07 1001.00 1002.11 1003.03 1004.12 1005.00 1005.95 1006.63 1007.30 1008.12 1009.01 1009.72 1010.19 1010.80 1011.30 1011.78 1012.27 1012.86
998.31 999.49 999.48 999.00 998.01 996.34 994.44 993.11 992.48 992.52 992.96 992.84 993.57 994.23 994.33 995.06 995.37 996.32 996.16 996.08 996.71 996.86 996.93 997.11 997.65 998.53 999.79 1000.81 1001.77 1002.71 1003.64 1004.43 1005.47 1006.33 1006.91 1007.53 1008.32 1009.24 1009.93 1010.50 1010.95 1011.29 1011.90 1012.54
999.49 1000.07 1000.71 1000.72 999.48 997.80 995.28 993.78 992.33 991.85 993.49 993.02 993.29 994.26 994.74 995.29 996.69 996.86 996.67 996.33 996.48 996.92 997.10 997.35 997.20 998.11 999.18 1000.29 1001.23 1002.26 1003.31 1004.46 1005.48 1006.07 1006.59 1007.07 1007.77 1008.57 1009.28 1009.96 1010.52 1011.12 1011.74 1012.15
1000.86 1001.07 1001.07 1001.26 1000.13 998.18 995.99 994.51 992.57 993.23 995.18 993.82 993.80 994.48 995.01 995.82 996.41 996.57 996.62 996.76 996.82 996.41 996.77 996.81 997.12 997.51 998.49 999.65 1000.79 1001.82 1002.95 1003.97 1004.58 1005.48 1006.23 1006.89 1007.33 1008.02 1008.77 1009.49 1010.12 1010.75 1011.43 1012.13
1000.80 1001.47 1001.51 1000.55 999.87 999.32 996.52 995.85 994.44 994.85 994.66 994.39 994.46 994.62 995.16 995.57 996.01 996.46 996.51 996.94 996.70 996.32 996.52 996.35 996.61 997.14 998.12 999.17 1000.46 1001.68 1002.52 1003.28 1004.27 1005.14 1005.94 1006.53 1007.08 1007.63 1008.35 1009.06 1009.77 1010.44 1010.96 1011.85
999.59 1000.01 999.99 999.65 997.79 997.11 996.07 997.36 996.11 994.87 995.46 995.48 995.34 994.94 994.95 995.41 995.76 996.17 996.57 996.51 996.70 996.63 996.93 996.96 996.84 997.25 998.06 999.09 1000.06 1001.17 1002.13 1003.01 1004.00 1004.93 1005.73 1006.34 1006.91 1007.39 1007.94 1008.63 1009.53 1010.31 1010.77 1011.50
1000.17 999.52 999.24 998.41 997.01 995.60 994.73 995.86 995.03 995.23 996.00 995.88 995.34 994.92 995.63 995.44 995.58 996.16 996.36 996.45 996.73 997.04 997.30 997.46 997.50 997.92 998.71 999.41 1000.22 1001.08 1002.02 1002.97 1003.86 1004.61 1005.39 1006.16 1006.79 1007.34 1007.91 1008.44 1009.55 1010.14 1010.51 1011.06
1002.09 1001.12 1001.09 999.25 998.73 998.17 996.29 995.86 994.33 994.63 995.27 995.79 995.90 995.74 995.48 995.58 995.85 996.18 996.55 996.91 997.21 997.56 997.71 997.86 998.27 998.89 999.40 999.89 1000.71 1001.42 1002.15 1002.92 1003.74 1004.32 1005.00 1005.83 1006.59 1007.33 1008.11 1009.31 1010.06 1010.41 1009.79 1010.23
1003.63 1003.87 1003.48 1002.70 1002.50 1002.51 999.62 995.94 993.88 994.55 995.21 995.50 995.75 995.66 995.78 995.97 996.16 996.49 997.10 997.35 997.63 998.04 998.29 998.71 999.14 999.57 1000.08 1000.39 1001.01 1001.54 1002.02 1002.74 1003.40 1004.10 1004.71 1005.38 1006.26 1007.16 1008.30 1009.24 1010.39 1010.66 1010.78 1011.12
Thickness
5862 5834 5820 5838 5839 5838 5820 5810 5806 5821 5818 5791 5798 5818 5834 5841 5846 5838 5833 5828 5828 5831 5839 5840 5838 5835 5830 5826 5821 5818 5813 5810 5803 5797 5791 5789 5787 5795 5793 5792 5789 5783 5779 5777
5837 5826 5859 5861 5856 5838 5821 5800 5787 5783 5807 5799 5794 5754 5803 5810 5810 5817 5840 5834 5836 5835 5837 5837 5836 5834 5829 5824 5823 5817 5815 5811 5806 5801 5797 5796 5794 5791 5786 5784 5782 5784 5782 5781
5825 5849 5875 5859 5849 5837 5835 5808 5799 5784 5793 5809 5792 5742 5778 5802 5833 5829 5844 5849 5852 5846 5837 5836 5835 5834 5831 5824 5822 5817 5816 5814 5808 5803 5800 5797 5791 5786 5784 5784 5785 5785 5784 5785
5837 5868 5864 5859 5846 5861 5830 5846 5828 5809 5788 5789 5835 5754 5775 5812 5816 5832 5849 5853 5853 5856 5854 5847 5842 5838 5834 5828 5827 5823 5819 5814 5809 5805 5800 5791 5784 5778 5785 5779 5776 5777 5784 5785
5829 5848 5851 5852 5866 5880 5863 5876 5858 5808 5820 5830 5834 5795 5802 5798 5803 5842 5855 5868 5868 5869 5864 5856 5854 5850 5843 5836 5830 5828 5823 5816 5810 5805 5801 5794 5788 5790 5785 5780 5772 5762 5782 5784
5840 5875 5868 5866 5884 5890 5892 5874 5867 5868 5847 5804 5833 5804 5791 5807 5831 5859 5868 5870 5875 5874 5873 5870 5866 5865 5852 5844 5836 5831 5824 5818 5813 5807 5802 5796 5792 5789 5779 5777 5776 5773 5772 5768
5826 5840 5866 5876 5856 5877 5875 5843 5786 5788 5788 5783 5825 5801 5792 5830 5860 5876 5877 5874 5880 5881 5879 5875 5866 5862 5857 5848 5841 5835 5829 5820 5819 5812 5805 5800 5793 5790 5786 5780 5777 5773 5766 5754
5789 5789 5842 5871 5856 5850 5846 5836 5784 5773 5777 5797 5813 5779 5815 5855 5878 5877 5876 5872 5876 5884 5886 5880 5875 5871 5863 5854 5848 5841 5832 5826 5823 5817 5808 5804 5797 5790 5790 5786 5781 5775 5775 5775
5793 5803 5866 5875 5880 5868 5840 5819 5850 5819 5830 5803 5795 5816 5846 5860 5859 5866 5870 5866 5869 5884 5889 5886 5881 5878 5869 5860 5855 5848 5838 5831 5826 5820 5811 5804 5800 5792 5789 5786 5784 5784 5784 5780
5830 5794 5849 5869 5880 5870 5847 5859 5807 5809 5778 5775 5798 5807 5814 5829 5849 5856 5853 5853 5871 5886 5892 5888 5885 5882 5875 5868 5861 5854 5847 5838 5831 5821 5814 5805 5798 5795 5791 5787 5785 5786 5792 5789
5847 5822 5834 5858 5846 5833 5834 5821 5829 5821 5807 5778 5776 5793 5859 5848 5861 5856 5866 5830 5873 5898 5894 5892 5888 5886 5881 5874 5862 5854 5847 5838 5829 5821 5812 5805 5796 5793 5792 5791 5791 5790 5791 5787
5854 5833 5805 5828 5872 5876 5861 5832 5829 5781 5788 5804 5803 5801 5880 5876 5876 5883 5877 5889 5902 5905 5902 5899 5891 5884 5879 5873 5861 5855 5849 5841 5833 5825 5815 5805 5798 5793 5793 5788 5790 5790 5784 5785
5859 5823 5790 5805 5835 5867 5844 5850 5844 5835 5827 5801 5790 5810 5872 5877 5881 5883 5891 5899 5904 5902 5897 5898 5892 5882 5877 5872 5863 5857 5853 5844 5835 5826 5816 5808 5803 5796 5794 5790 5787 5787 5790 5789
5868 5835 5808 5784 5811 5848 5832 5846 5851 5835 5795 5804 5813 5838 5849 5863 5870 5898 5895 5897 5902 5901 5896 5896 5892 5884 5878 5871 5866 5859 5854 5848 5841 5829 5819 5811 5807 5803 5799 5800 5797 5791 5790 5790
5853 5814 5829 5833 5848 5857 5850 5848 5847 5829 5829 5805 5829 5844 5865 5870 5880 5884 5898 5895 5891 5891 5891 5889 5889 5880 5875 5869 5866 5863 5859 5852 5845 5831 5824 5818 5816 5811 5806 5802 5800 5800 5795 5794
5840 5807 5829 5815 5838 5846 5845 5862 5854 5848 5847 5846 5850 5857 5882 5884 5883 5886 5886 5889 5885 5884 5892 5891 5892 5882 5876 5871 5868 5865 5861 5855 5848 5838 5828 5825 5818 5811 5808 5804 5800 5798 5795 5795
5807 5805 5801 5787 5823 5829 5816 5847 5857 5856 5856 5853 5831 5856 5894 5881 5880 5880 5882 5887 5889 5889 5891 5890 5893 5889 5886 5879 5876 5869 5865 5860 5851 5845 5837 5831 5825 5814 5813 5807 5803 5801 5798 5796
5799 5797 5801 5783 5803 5768 5829 5873 5874 5860 5864 5868 5868 5880 5889 5878 5879 5881 5888 5881 5882 5889 5890 5888 5893 5894 5890 5888 5882 5878 5870 5862 5853 5848 5844 5836 5826 5817 5814 5810 5807 5806 5802 5797
5797 5782 5771 5771 5777 5808 5836 5859 5865 5853 5853 5879 5871 5870 5879 5877 5878 5870 5887 5891 5886 5887 5893 5894 5899 5899 5891 5886 5883 5877 5870 5865 5856 5848 5845 5841 5834 5821 5814 5810 5808 5809 5806 5802
5771 5766 5753 5750 5759 5760 5824 5855 5877 5881 5822 5876 5875 5866 5865 5864 5829 5844 5877 5887 5887 5887 5891 5891 5899 5900 5893 5888 5885 5877 5870 5861 5853 5851 5849 5846 5840 5829 5821 5816 5812 5810 5806 5805
5749 5744 5747 5736 5749 5779 5827 5850 5879 5814 5806 5860 5866 5862 5861 5850 5855 5866 5877 5880 5886 5890 5888 5894 5895 5897 5897 5893 5885 5876 5871 5862 5862 5858 5852 5847 5842 5835 5828 5821 5817 5814 5808 5802
5736 5729 5728 5746 5730 5739 5823 5820 5818 5832 5853 5859 5862 5864 5860 5863 5866 5867 5871 5874 5880 5884 5886 5893 5894 5892 5897 5895 5884 5873 5869 5870 5865 5859 5852 5847 5842 5837 5831 5825 5820 5815 5810 5801
5746 5759 5752 5758 5767 5806 5823 5805 5830 5846 5840 5847 5849 5859 5867 5862 5860 5861 5864 5873 5877 5880 5880 5886 5889 5888 5894 5891 5886 5875 5872 5869 5863 5856 5849 5845 5840 5836 5832 5826 5819 5813 5810 5803
5746 5766 5761 5778 5803 5818 5836 5828 5836 5842 5835 5843 5852 5858 5853 5855 5858 5853 5860 5869 5871 5873 5874 5878 5881 5878 5877 5883 5880 5876 5872 5867 5859 5852 5846 5841 5836 5831 5828 5824 5819 5813 5808 5802
5725 5743 5741 5773 5781 5787 5809 5816 5837 5835 5838 5834 5840 5847 5850 5853 5850 5850 5853 5859 5865 5867 5870 5873 5871 5870 5870 5873 5870 5869 5865 5860 5851 5847 5843 5837 5833 5827 5822 5809 5808 5809 5810 5806
5708 5706 5714 5725 5741 5737 5765 5818 5839 5830 5830 5835 5834 5837 5845 5846 5842 5845 5845 5855 5858 5859 5862 5861 5862 5863 5861 5862 5860 5859 5860 5854 5847 5841 5837 5834 5828 5820 5809 5803 5792 5789 5789 5787